Search your local weather  

 

Hazardous Weather Conditions

No active alerts for BOSTON, MASSACHUSETTS

Current Conditions: BOSTON, MASSACHUSETTS

Fair


31.0 F

Last Updated on Feb 26 2021, 10:54 am EST
Humidity: 49%
Wind Speed: NW 6.9 mph
Barometer 30.48 in
Dewpoint: 14.0 F
Visibility: 10.00 mi
Precip: --
Heat Index: NA
Wind Chill: 24 F
Current conditions at:

Lawrence Municipal Airport, MA (KLWM)

Lat: 42.7126 Lon: -71.12553

Local Radar Image active severe weather and emergency alerts image image weather storm and storm spotter reports image weather observation monitoring service image
Local
Radar
Active
Alerts
Storm Reports Weather
Monitoring

Sign-up For Email & Text Message Weather Alert Notification Services



Advertise Here

Observation History for BOSTON, MASSACHUSETTS


Time Wind
(mph)
Vis
(mi)
Weather Precip (in) Temperature (F) Relative
Humidity
Wind
Chill
(F)
Heat
Index
(F)
Pressure
Air Dwpt altimeter
(in)
sea level
(mb)
10:54 am EST NW 6.9 10.00 Fair -- 31.0 14.0 49% 24 NA 30.48 1032.2
9:54 am EST NW 9.2 G 18.4 10.00 Unknown Precip Trace 29.0 14.0 54% 20 NA 30.47 1032.0
8:54 am EST W 5.8 10.00 Fair -- 27.0 12.9 55% 20 NA 30.44 1030.9
7:54 am EST N 8.1 10.00 Fair -- 25.0 10.9 55% 16 NA 30.42 1030.3
6:54 am EST N 3.5 10.00 Fair -- 22.0 10.9 63% NA NA 30.38 1028.9
5:54 am EST 3.5 10.00 Fair -- 24.0 12.0 60% NA NA 30.34 1027.6
4:54 am EST N 5.8 10.00 Fair -- 23.0 12.0 63% 16 NA 30.31 1026.5
3:54 am EST W 3.5 10.00 Fair -- 25.0 14.0 63% NA NA 30.27 1025.3
2:54 am EST W 3.5 10.00 Fair -- 27.0 14.0 58% NA NA 30.25 1024.4
1:54 am EST SW 6.9 10.00 Fair -- 28.0 15.1 58% 21 NA 30.23 1023.8
12:54 am EST SW 4.6 10.00 Fair -- 28.0 16.0 60% 23 NA 30.22 1023.5
11:54 pm EST NW 3.5 10.00 Fair -- 29.0 17.1 61% NA NA 30.20 1022.8
10:54 pm EST N 0.0 10.00 Fair -- 30.0 17.1 58% NA NA 30.19 1022.4
9:54 pm EST W 5.8 10.00 Fair -- 33.0 18.0 54% 28 NA 30.17 1021.8
8:54 pm EST W 4.6 10.00 Fair -- 34.0 17.1 50% 30 NA 30.15 1021.0
7:54 pm EST W 6.9 10.00 Fair -- 36.0 18.0 48% 30 NA 30.12 1020.1
6:54 pm EST W 10.4 G 17.3 10.00 Fair -- 38.0 18.0 44% 31 NA 30.09 1019.1
5:54 pm EST W 11.5 G 20.7 10.00 Fair -- 40.0 17.1 40% 33 NA 30.06 1017.9
4:54 pm EST W 18.4 G 32.2 10.00 Fair -- 41.0 14.0 33% 32 NA 30.02 1016.8
3:54 pm EST W 17.3 G 27.6 10.00 Fair -- 42.0 15.1 33% 34 NA 30.00 1016.0
2:54 pm EST W 13.8 G 28.8 10.00 A Few Clouds -- 42.0 15.1 33% 35 NA 29.98 1015.3
1:54 pm EST W 13.8 G 27.6 10.00 A Few Clouds -- 42.0 16.0 35% 35 NA 29.97 1015.0
12:54 pm EST W 19.6 G 29.9 10.00 A Few Clouds -- 41.0 15.1 35% 32 NA 29.97 1015.0
11:54 am EST W 17.3 G 27.6 10.00 Mostly Cloudy -- 41.0 17.1 38% 32 NA 29.98 1015.3

Regional Weather Observation

Laurence G Hanscom Field Airport, MA (KBED)

Fair
33.0 F

Boston, Logan International Airport, MA (KBOS)

A Few Clouds
34.0 F

Nashua - Boire Field Airport, NH (KASH)

A Few Clouds
32.0 F

East Milton, MA (KMQE)

NULL
34.0 F

Manchester Airport, NH (KMHT)

A Few Clouds
31.0 F

Norwood, Norwood Memorial Airport, MA (KOWD)

Fair
38.0 F

Advertise Here


Advertise Here